Location: La Sioule Rivi�re
(46.3664°N, 3.3197°E)
Time: 12:16:18
(UTC+00:00)

FALCON 9 DEB - Pass Details

Date: 29 October 2020
Orbit: 427 x 438 km, 53.0° (Epoch: 23 November)

Event Time Altitude Azimuth Distance (km) Brightness Sun altitude
Rises 18:26:35 0° 300° (WNW) 2,398 7.9 -19.6°
Reaches altitude 10° 18:28:44 10° 306° (NW) 1,528 6.7 -20.0°
Enters shadow 18:31:45 50° 358° (N) 557 3.6 -20.5°
